#timestamp,LO_Frequency,Hit,StdDev 
1676570415.9,286047000.4,N
1676570435.7,286047001.7,N
1676570455.6,286047004.3,N
1676570475.4,286047006.0,N
1676570495.2,286047004.9,N
1676570515.1,286047003.7,N
1676570516.0,286047003.7,N
1676570535.8,286047003.5,N
1676570555.7,286047001.5,N
1676570575.5,286047002.4,N
1676570595.3,286047002.1,N
1676570615.2,286047004.2,N
1676570635.0,286047003.4,N
1676570635.9,286047003.4,N
1676570655.8,286047005.5,N
1676570675.6,286047007.3,N
1676570695.4,286047006.8,N
1676570715.3,286047003.3,N
1676570735.1,286047003.2,N
1676570755.9,286047003.7,N
1676570775.7,286047003.9,N
1676570795.5,286047005.2,N
1676570815.4,286047005.6,N
1676570835.2,286047005.1,N
1676570855.0,286047005.0,N
1676570855.9,286047005.0,N
1676570875.8,286047003.1,N
1676570895.6,286047002.0,N
1676570915.5,286047001.7,N
1676570935.3,286047004.3,N
1676570955.1,286047003.8,N
1676570975.9,286047003.0,N
1676570995.7,286047005.7,Y
1676571015.6,286046998.6,P
1676571035.4,286046999.8,N
1676571055.2,286046999.7,N
1676571075.1,286047000.8,N
1676571076.0,286047000.8,N
1676571095.8,286047002.8,N
1676571115.6,286047002.4,N
1676571135.5,286047002.1,N
1676571155.3,286047002.3,N
1676571175.2,286047002.5,N
1676571195.9,286047000.3,N
1676571215.7,286046998.1,N
1676571235.6,286047001.1,N
1676571255.4,286047000.3,N
1676571275.2,286047001.0,N
1676571295.1,286047000.5,N
1676571296.0,286047000.5,N
1676571315.8,286046998.5,N
1676571335.7,286046999.0,N
1676571355.5,286047000.9,N
1676571375.3,286047001.0,N
1676571395.2,286046998.2,N
1676571415.0,286046996.6,N
1676571415.9,286046996.6,N
1676571435.8,286047000.3,N
1676571455.6,286047000.1,N
1676571475.4,286047000.6,N
1676571495.3,286046997.4,N
1676571515.1,286046997.6,N
1676571535.8,286046995.5,N
1676571555.7,286046997.7,N
1676571575.5,286046995.2,N
1676571595.3,286046995.4,N
1676571615.2,286046997.1,N
1676571635.0,286047011.9,Y
1676571635.9,286046996.8,P
1676571655.8,286046999.6,N
1676571675.6,286046997.8,N
1676571695.5,286046999.1,N
1676571715.3,286046999.4,N
1676571735.1,286047000.7,N
1676571755.9,286047002.0,N
1676571775.7,286047002.6,N
1676571795.5,286047002.2,N
1676571815.4,286047004.2,N
1676571835.2,286047002.4,N
1676571855.1,286047000.4,N
1676571856.0,286047000.4,N
1676571875.8,286047000.4,N
1676571895.6,286047002.3,N
1676571915.5,286047000.1,N
1676571935.3,286046998.5,N
1676571955.1,286047000.7,N
1676571975.9,286046996.6,N
1676571995.7,286047000.7,N
1676572015.5,286046998.3,N
1676572035.4,286046998.5,N
1676572055.2,286046999.1,N
1676572075.1,286046999.8,N
1676572076.0,286046999.8,N
1676572095.8,286047002.9,N
1676572115.6,286047001.8,N
1676572135.5,286047000.2,N
1676572155.3,286047002.4,N
1676572175.1,286047001.7,N
1676572195.9,286047002.3,N
1676572215.7,286046998.1,N
1676572235.6,286046998.9,N
1676572255.4,286046997.5,N
1676572275.2,286046997.6,N
1676572295.1,286046999.1,N
1676572296.0,286046999.1,N
1676572315.8,286047001.1,N
1676572335.6,286047002.1,N
1676572355.5,286047001.4,N
1676572375.3,286047000.1,N
1676572395.2,286047001.1,N
1676572415.9,286047001.2,N
1676572435.7,286047000.1,N
1676572455.6,286047000.3,N
1676572475.4,286047002.6,N
1676572495.2,286047002.5,N
1676572515.1,286047002.8,N
1676572516.0,286047002.8,N
1676572535.8,286047000.9,N
1676572555.7,286047000.7,N
1676572575.5,286047000.1,N
1676572595.3,286046999.2,N
1676572615.2,286046995.3,Y
1676572635.0,286046993.4,P
1676572635.9,286046993.4,N
1676572655.7,286046998.0,N
1676572675.6,286046994.9,N
1676572695.4,286046995.6,N
1676572715.3,286046997.4,N
1676572735.1,286046997.7,N
1676572736.0,286046997.7,N
1676572755.8,286046995.5,N
1676572775.7,286046995.3,N
1676572795.5,286046996.3,N
1676572815.4,286046997.5,N
1676572835.2,286047001.2,N
1676572855.0,286046997.4,N
1676572855.9,286046997.4,N
1676572875.8,286047000.8,N
1676572895.6,286047000.7,N
1676572915.5,286046998.5,N
1676572935.3,286047000.4,N
1676572955.1,286047002.8,N
1676572975.9,286047000.1,N
1676572995.7,286047001.6,N
1676573015.5,286047002.3,N
1676573035.4,286046996.5,N
1676573055.2,286046995.3,N
1676573075.1,286046995.9,N
1676573076.0,286046995.9,N
1676573095.8,286046995.1,N
1676573115.6,286046997.4,N
1676573135.5,286046999.2,N
1676573155.3,286047000.8,N
1676573175.1,286047000.2,N
1676573195.9,286047002.3,N
1676573215.7,286046999.9,N
1676573235.6,286047002.4,N
1676573255.4,286047002.1,N
1676573275.2,286047001.7,N
1676573295.1,286047002.8,N
1676573296.0,286047002.8,N
1676573315.8,286046998.9,N
1676573335.7,286047000.8,N
1676573355.5,286046998.8,N
1676573375.3,286046998.5,N
1676573395.2,286047001.0,N
1676573415.9,286047000.9,N
1676573435.7,286046996.9,N
1676573455.6,286046997.8,N
1676573475.4,286046996.9,N
1676573495.3,286046999.0,N
1676573515.1,286047001.1,N
1676573516.0,286047001.1,N
1676573535.8,286047003.9,N
1676573555.7,286047002.8,N
1676573575.5,286047000.2,N
1676573595.3,286047000.8,N
1676573615.2,286046999.7,N
1676573635.0,286047002.5,N
1676573635.9,286047002.5,N
1676573655.8,286047001.7,N
1676573675.6,286047004.1,N
1676573695.4,286047003.1,N
1676573715.3,286047003.7,N
1676573735.1,286047002.4,N
1676573755.8,286046999.7,N
1676573775.7,286047000.4,N
1676573795.5,286046999.8,N
1676573815.4,286046999.8,N
1676573835.2,286047002.8,N
1676573855.0,286046998.8,N
1676573855.9,286046998.8,N
1676573875.8,286046999.1,N
1676573895.6,286046997.2,N
1676573915.4,286046998.9,N
1676573935.3,286046998.2,N
1676573955.1,286047001.2,N
1676573975.9,286046998.5,N
1676573995.7,286046998.1,N
